Change the Weather History Date:

Friday, April 4, 2014

  Actual Average Record
Temperature  
Mean Temperature 70 °F -  
Max Temperature 80 °F 71 °F 86 °F (2011)
Min Temperature 59 °F 47 °F 41 °F (2013)
Cooling Degree Days 4    
Growing Degree Days 20 (Base 50)    
Moisture  
Dew Point 54 °F    
Average Humidity 59    
Maximum Humidity 82    
Minimum Humidity 42    
Precipitation  
Precipitation 0.00 in - - ()
Sea Level Pressure  
Sea Level Pressure 29.90 in    
Wind  
Wind Speed 9 mph (SSW)    
Max Wind Speed 17 mph    
Max Gust Speed 28 mph    
Visibility 10 miles    
Events      
Averages and records for this station are not official NWS values.
T = Trace of Precipitation, MM = Missing Value Source: NWS Daily Summary

Daily Weather History Graph

Daily Weather History Graph

Search for Another Location

Airport or City:

Trip Planner

Search our weather history database for the weather conditions in past years. The results will help you decide how hot, cold, wet, or windy it might be!

Date:

Astronomy

Apr. 04, 2014 Rise Set
Actual Time 7:07 AM EDT 7:47 PM EDT
Civil Twilight 6:42 AM EDT 8:13 PM EDT
Nautical Twilight 6:12 AM EDT 8:43 PM EDT
Astronomical Twilight 5:41 AM EDT 9:13 PM EDT
Moon 10:32 AM EDT (4/4) No Moon Set
Length of Visible Light 13h 30m
Length of Day
12h 40m
Waxing Crescent, 25% of the Moon is Illuminated
Apr 4
Waxing Crescent
Apr 7
First Quarter
Apr 15
Full
Apr 22
Last Quarter
Apr 29
New

Hourly Weather History & Observations

Time (EDT) Temp. Heat Index Dew Point Humidity Pressure Visibility Wind Dir Wind Speed Gust Speed Precip Events Conditions
12:35 AM 69.8 °F - 46.4 °F 43% 29.96 in 10.0 mi South 5.8 mph - N/A   Clear
12:55 AM 68.0 °F - 46.4 °F 46% 29.96 in 10.0 mi South 5.8 mph - N/A   Clear
1:15 AM 68.0 °F - 46.4 °F 46% 29.96 in 10.0 mi South 5.8 mph - N/A   Clear
1:35 AM 68.0 °F - 48.2 °F 49% 29.95 in 10.0 mi South 6.9 mph - N/A   Clear
1:55 AM 64.4 °F - 48.2 °F 56% 29.94 in 10.0 mi South 6.9 mph - N/A   Clear
2:15 AM 64.4 °F - 50.0 °F 59% 29.94 in 10.0 mi South 5.8 mph - N/A   Clear
2:35 AM 62.6 °F - 50.0 °F 63% 29.95 in 10.0 mi SSE 6.9 mph - N/A   Clear
2:55 AM 62.6 °F - 50.0 °F 63% 29.95 in 10.0 mi SSE 5.8 mph - N/A   Clear
3:15 AM 62.6 °F - 50.0 °F 63% 29.94 in 10.0 mi SSE 5.8 mph - N/A   Clear
3:35 AM 62.6 °F - 50.0 °F 63% 29.94 in 10.0 mi SSE 6.9 mph - N/A   Clear
3:55 AM 62.6 °F - 50.0 °F 63% 29.93 in 10.0 mi South 6.9 mph - N/A   Clear
4:15 AM 62.6 °F - 51.8 °F 68% 29.93 in 10.0 mi South 5.8 mph - N/A   Clear
4:35 AM 60.8 °F - 51.8 °F 72% 29.93 in 10.0 mi South 6.9 mph - N/A   Clear
4:55 AM 60.8 °F - 51.8 °F 72% 29.93 in 10.0 mi South 5.8 mph - N/A   Clear
5:15 AM 60.8 °F - 51.8 °F 72% 29.93 in 10.0 mi South 5.8 mph - N/A   Clear
5:35 AM 59.0 °F - 51.8 °F 77% 29.92 in 10.0 mi SSE 4.6 mph - N/A   Clear
5:55 AM 59.0 °F - 51.8 °F 77% 29.92 in 10.0 mi South 5.8 mph - N/A   Clear
6:15 AM 59.0 °F - 51.8 °F 77% 29.92 in 10.0 mi South 6.9 mph - N/A   Clear
6:35 AM 59.0 °F - 51.8 °F 77% 29.92 in 10.0 mi South 6.9 mph - N/A   Clear
6:55 AM 59.0 °F - 53.6 °F 82% 29.91 in 10.0 mi South 6.9 mph - N/A   Clear
7:15 AM 59.0 °F - 53.6 °F 82% 29.91 in 10.0 mi South 9.2 mph - N/A   Clear
7:35 AM 59.0 °F - 53.6 °F 82% 29.92 in 10.0 mi South 5.8 mph - N/A   Clear
7:55 AM 59.0 °F - 53.6 °F 82% 29.93 in 10.0 mi South 5.8 mph - N/A   Clear
8:15 AM 59.0 °F - 53.6 °F 82% 29.93 in 10.0 mi South 6.9 mph - N/A   Clear
8:35 AM 60.8 °F - 53.6 °F 77% 29.93 in 10.0 mi South 9.2 mph - N/A   Clear
9:15 AM 64.4 °F - 55.4 °F 73% 29.92 in 10.0 mi SSW 12.7 mph - N/A   Clear
9:35 AM 66.2 °F - 55.4 °F 68% 29.92 in 10.0 mi SW 10.4 mph 18.4 mph N/A   Clear
9:55 AM 66.2 °F - 57.2 °F 73% 29.92 in 10.0 mi SW 12.7 mph 21.9 mph N/A   Clear
10:15 AM 68.0 °F - 59.0 °F 73% 29.93 in 10.0 mi SSW 12.7 mph 18.4 mph N/A   Clear
10:35 AM 68.0 °F - 59.0 °F 73% 29.94 in 10.0 mi SW 16.1 mph 21.9 mph N/A   Clear
10:55 AM 69.8 °F - 59.0 °F 68% 29.94 in 10.0 mi SW 13.8 mph 24.2 mph N/A   Clear
11:15 AM 69.8 °F - 60.8 °F 73% 29.93 in 10.0 mi SW 12.7 mph 20.7 mph N/A   Clear
11:35 AM 69.8 °F - 59.0 °F 68% 29.95 in 10.0 mi SW 13.8 mph 20.7 mph N/A   Clear
11:55 AM 69.8 °F - 59.0 °F 68% 29.95 in 10.0 mi SW 15.0 mph 26.5 mph N/A   Scattered Clouds
12:15 PM 71.6 °F - 59.0 °F 64% 29.96 in 10.0 mi SW 17.3 mph 23.0 mph N/A   Clear
12:35 PM 71.6 °F - 59.0 °F 64% 29.97 in 10.0 mi WSW 9.2 mph 26.5 mph N/A   Scattered Clouds
12:55 PM 71.6 °F - 57.2 °F 60% 29.96 in 10.0 mi WSW 12.7 mph 27.6 mph N/A   Scattered Clouds
1:15 PM 75.2 °F - 55.4 °F 50% 29.95 in 10.0 mi SW 16.1 mph 27.6 mph N/A   Scattered Clouds
1:35 PM 73.4 °F - 55.4 °F 53% 29.95 in 10.0 mi SW 13.8 mph 21.9 mph N/A   Scattered Clouds
1:55 PM 75.2 °F - 55.4 °F 50% 29.95 in 10.0 mi WSW 16.1 mph 25.3 mph N/A   Scattered Clouds
2:15 PM 77.0 °F - 57.2 °F 50% 29.93 in 10.0 mi SW 17.3 mph 23.0 mph N/A   Scattered Clouds
2:35 PM 75.2 °F - 57.2 °F 53% 29.93 in 10.0 mi SW 12.7 mph 23.0 mph N/A   Scattered Clouds
2:55 PM 78.8 °F - 57.2 °F 47% 29.92 in 10.0 mi WSW 13.8 mph 23.0 mph N/A   Scattered Clouds
3:15 PM 78.8 °F - 57.2 °F 47% 29.90 in 10.0 mi SW 11.5 mph 25.3 mph N/A   Clear
3:35 PM 78.8 °F - 55.4 °F 44% 29.90 in 10.0 mi SW 15.0 mph 21.9 mph N/A   Clear
3:55 PM 78.8 °F - 57.2 °F 47% 29.89 in 10.0 mi SW 12.7 mph 16.1 mph N/A   Clear
4:35 PM 80.6 °F 80.5 °F 55.4 °F 42% 29.86 in 10.0 mi SW 10.4 mph 19.6 mph N/A   Clear
4:55 PM 78.8 °F - 55.4 °F 44% 29.85 in 10.0 mi SSW 15.0 mph 18.4 mph N/A   Clear
5:15 PM 80.6 °F 80.5 °F 55.4 °F 42% 29.85 in 10.0 mi SSW 9.2 mph 17.3 mph N/A   Clear
5:35 PM 80.6 °F 80.5 °F 55.4 °F 42% 29.84 in 10.0 mi SSW 16.1 mph 19.6 mph N/A   Clear
5:55 PM 80.6 °F 80.5 °F 55.4 °F 42% 29.84 in 10.0 mi SW 13.8 mph - N/A   Clear
6:15 PM 78.8 °F - 55.4 °F 44% 29.83 in 10.0 mi SSW 13.8 mph 18.4 mph N/A   Clear
6:35 PM 80.6 °F 80.5 °F 55.4 °F 42% 29.83 in 10.0 mi SSW 11.5 mph - N/A   Clear
6:55 PM 78.8 °F - 55.4 °F 44% 29.83 in 10.0 mi SSW 12.7 mph 17.3 mph N/A   Clear
7:15 PM 78.8 °F - 53.6 °F 42% 29.82 in 10.0 mi SSW 11.5 mph - N/A   Clear
7:35 PM 77.0 °F - 53.6 °F 44% 29.81 in 10.0 mi SSW 12.7 mph 19.6 mph N/A   Clear
7:55 PM 77.0 °F - 53.6 °F 44% 29.80 in 10.0 mi South 12.7 mph - N/A   Clear
8:15 PM 77.0 °F - 53.6 °F 44% 29.81 in 10.0 mi SW 6.9 mph - N/A   Clear
8:35 PM 75.2 °F - 53.6 °F 47% 29.82 in 10.0 mi SW 8.1 mph - N/A   Clear
8:55 PM 73.4 °F - 55.4 °F 53% 29.83 in 10.0 mi SSW 6.9 mph - N/A   Clear
9:15 PM 73.4 °F - 55.4 °F 53% 29.83 in 10.0 mi SSW 6.9 mph - N/A   Clear
9:35 PM 73.4 °F - 55.4 °F 53% 29.84 in 10.0 mi SSW 6.9 mph - N/A   Clear
9:55 PM 71.6 °F - 55.4 °F 57% 29.85 in 10.0 mi SSW 6.9 mph - N/A   Clear
10:15 PM 73.4 °F - 51.8 °F 47% 29.86 in 10.0 mi West 8.1 mph 17.3 mph N/A   Clear
10:35 PM 71.6 °F - 51.8 °F 50% 29.88 in 10.0 mi West 6.9 mph - N/A   Clear
10:55 PM 71.6 °F - 51.8 °F 50% 29.89 in 10.0 mi West 5.8 mph 16.1 mph N/A   Scattered Clouds
11:15 PM 69.8 °F - 51.8 °F 53% 29.89 in 10.0 mi West 5.8 mph - N/A   Scattered Clouds
11:35 PM 69.8 °F - 51.8 °F 53% 29.89 in 10.0 mi West 6.9 mph - N/A   Clear
11:55 PM 68.0 °F - 51.8 °F 56% 29.90 in 10.0 mi West 6.9 mph - N/A   Clear